DLH2PY EDDF-EDDS

Flight info

Callsign DLH2PY
Flight time N/A
Altitude 15000
Route ANEKI2L/18 ANEKI Y163 NEKLO Y171 INKAM N850 KRH T128 BADSO BADSO2A
Aircraft A320/M-SDE3FGHIRWY/LB1

Departure

Time 2026-04-17 12:29
Airport Frankfurt Main Airport (EDDF)

Arrival

Time N/A
Airport Stuttgart Airport (EDDS)
Time Latitude Longitude Altitude Speed Heading
2026-04-17 11:56 50.04425 8.56271 351 ft 0 kts 167°
2026-04-17 12:16 50.04426 8.56270 351 ft 2 kts 168°
2026-04-17 12:16 50.04480 8.56266 351 ft 9 kts 230°
2026-04-17 12:17 50.04484 8.56300 356 ft 2 kts 239°
2026-04-17 12:17 50.04508 8.56359 354 ft 5 kts 237°
2026-04-17 12:17 50.04513 8.56370 354 ft 0 kts 248°
2026-04-17 12:18 50.04513 8.56369 354 ft 1 kts 248°
2026-04-17 12:19 50.04490 8.56280 355 ft 16 kts 249°
2026-04-17 12:19 50.04448 8.56103 351 ft 18 kts 251°
2026-04-17 12:19 50.04359 8.56049 347 ft 16 kts 161°
2026-04-17 12:19 50.04266 8.56035 348 ft 14 kts 232°
2026-04-17 12:20 50.04227 8.55898 346 ft 14 kts 249°
2026-04-17 12:20 50.04193 8.55758 349 ft 14 kts 250°
2026-04-17 12:20 50.04160 8.55617 352 ft 14 kts 250°
2026-04-17 12:20 50.04127 8.55474 345 ft 14 kts 250°
2026-04-17 12:21 50.04092 8.55327 351 ft 15 kts 250°
2026-04-17 12:21 50.04056 8.55171 347 ft 16 kts 250°
2026-04-17 12:21 50.04017 8.55005 349 ft 17 kts 250°
2026-04-17 12:21 50.03972 8.54827 349 ft 18 kts 249°
2026-04-17 12:22 50.03929 8.54643 347 ft 14 kts 250°
2026-04-17 12:22 50.03893 8.54493 353 ft 15 kts 250°
2026-04-17 12:22 50.03847 8.54339 348 ft 16 kts 237°
2026-04-17 12:22 50.03788 8.54181 353 ft 18 kts 248°
2026-04-17 12:23 50.03744 8.53996 351 ft 19 kts 250°
2026-04-17 12:23 50.03698 8.53788 345 ft 21 kts 250°
2026-04-17 12:23 50.03647 8.53573 352 ft 22 kts 250°
2026-04-17 12:23 50.03556 8.53417 348 ft 15 kts 259°
2026-04-17 12:24 50.03578 8.53320 351 ft 9 kts 273°
2026-04-17 12:24 50.03544 8.53184 345 ft 15 kts 245°
2026-04-17 12:24 50.03513 8.53029 351 ft 16 kts 253°
2026-04-17 12:24 50.03474 8.52863 351 ft 17 kts 248°
2026-04-17 12:25 50.03452 8.52782 348 ft 0 kts 246°
2026-04-17 12:26 50.03451 8.52777 348 ft 4 kts 246°
2026-04-17 12:27 50.03422 8.52680 348 ft 11 kts 242°
2026-04-17 12:27 50.03380 8.52601 345 ft 9 kts 205°
2026-04-17 12:27 50.03331 8.52594 347 ft 0 kts 178°
2026-04-17 12:28 50.03330 8.52594 348 ft 2 kts 178°
2026-04-17 12:28 50.03102 8.52593 346 ft 71 kts 180°
2026-04-17 12:28 50.02397 8.52604 346 ft 131 kts 179°
2026-04-17 12:29 50.01327 8.52622 465 ft 167 kts 179°
2026-04-17 12:29 50.00098 8.52695 965 ft 181 kts 177°
2026-04-17 12:29 49.98842 8.52783 1703 ft 182 kts 178°
2026-04-17 12:29 49.97571 8.52856 2543 ft 177 kts 178°
2026-04-17 12:30 49.96374 8.52926 3366 ft 167 kts 178°
2026-04-17 12:30 49.95211 8.52997 3911 ft 177 kts 178°
2026-04-17 12:30 49.93861 8.53078 4008 ft 213 kts 178°
2026-04-17 12:30 49.92238 8.53181 4012 ft 254 kts 178°
2026-04-17 12:31 49.90400 8.53301 4019 ft 265 kts 178°
2026-04-17 12:31 49.88555 8.53426 4015 ft 265 kts 178°
2026-04-17 12:31 49.86710 8.53554 4020 ft 266 kts 178°
2026-04-17 12:31 49.84863 8.53682 4015 ft 265 kts 178°
2026-04-17 12:32 49.83014 8.53809 4006 ft 265 kts 178°
2026-04-17 12:32 49.81195 8.53937 4019 ft 266 kts 178°
2026-04-17 12:32 49.79350 8.54065 4017 ft 265 kts 178°
2026-04-17 12:32 49.77501 8.54078 4017 ft 265 kts 184°
2026-04-17 12:33 49.75663 8.53869 4015 ft 265 kts 185°
2026-04-17 12:33 49.73832 8.53629 4006 ft 263 kts 185°
2026-04-17 12:33 49.72004 8.53378 4001 ft 264 kts 185°
2026-04-17 12:33 49.70168 8.53125 4006 ft 265 kts 185°
2026-04-17 12:34 49.68314 8.52869 4625 ft 268 kts 185°
2026-04-17 12:34 49.66453 8.52615 5642 ft 270 kts 185°
2026-04-17 12:34 49.64570 8.52359 6568 ft 273 kts 185°
2026-04-17 12:34 49.62661 8.52101 7449 ft 277 kts 185°
2026-04-17 12:35 49.60723 8.51843 8310 ft 281 kts 185°
2026-04-17 12:35 49.58767 8.51581 9167 ft 284 kts 185°
2026-04-17 12:35 49.56780 8.51316 9974 ft 288 kts 185°
2026-04-17 12:35 49.54769 8.51054 10756 ft 292 kts 185°
2026-04-17 12:37 49.40064 8.49132 14990 ft 313 kts 185°
2026-04-17 12:37 49.37898 8.48850 15013 ft 312 kts 185°
2026-04-17 12:38 49.35738 8.48569 15016 ft 312 kts 185°
2026-04-17 12:38 49.33572 8.48289 15016 ft 312 kts 185°
2026-04-17 12:38 49.31400 8.48163 15015 ft 312 kts 178°
2026-04-17 12:38 49.29245 8.48598 15016 ft 312 kts 167°
2026-04-17 12:39 49.27166 8.49572 15014 ft 313 kts 159°
2026-04-17 12:39 49.25193 8.50984 15017 ft 313 kts 151°
2026-04-17 12:39 49.23337 8.52740 15016 ft 313 kts 148°
2026-04-17 12:39 49.21498 8.54524 15016 ft 313 kts 148°
2026-04-17 12:40 49.19655 8.56303 15019 ft 314 kts 148°
2026-04-17 12:40 49.17759 8.57946 15017 ft 313 kts 155°
2026-04-17 12:40 49.15728 8.59151 15019 ft 313 kts 164°
2026-04-17 12:40 49.13600 8.59879 15021 ft 313 kts 172°
2026-04-17 12:41 49.11459 8.60123 15022 ft 313 kts 180°
2026-04-17 12:41 49.09257 8.59910 15024 ft 313 kts 186°
2026-04-17 12:41 49.07123 8.59584 15023 ft 313 kts 186°
2026-04-17 12:41 49.04953 8.59260 15024 ft 313 kts 186°
2026-04-17 12:42 49.02785 8.58939 15025 ft 313 kts 186°
2026-04-17 12:42 49.00585 8.58616 15025 ft 313 kts 185°
2026-04-17 12:42 48.98442 8.58535 15025 ft 313 kts 178°
2026-04-17 12:42 48.96265 8.58786 15024 ft 313 kts 175°
2026-04-17 12:43 48.94091 8.59047 15025 ft 313 kts 176°
2026-04-17 12:43 48.91918 8.59304 15024 ft 313 kts 176°
2026-04-17 12:43 48.89744 8.59560 15027 ft 313 kts 176°
2026-04-17 12:43 48.87572 8.59815 15026 ft 313 kts 176°
2026-04-17 12:44 48.85400 8.60090 15024 ft 313 kts 172°
2026-04-17 12:44 48.83373 8.61221 15026 ft 313 kts 143°
2026-04-17 12:44 48.81993 8.63721 15016 ft 312 kts 113°
2026-04-17 12:44 48.81629 8.66922 15006 ft 310 kts 84°
2026-04-17 12:45 48.82099 8.70109 14976 ft 311 kts 71°
2026-04-17 12:45 48.82845 8.73186 14596 ft 311 kts 69°
2026-04-17 12:45 48.83626 8.76249 14235 ft 311 kts 69°
2026-04-17 12:45 48.84405 8.79302 13895 ft 309 kts 69°
2026-04-17 12:46 48.85038 8.82418 13555 ft 308 kts 76°
2026-04-17 12:46 48.85483 8.85584 13231 ft 306 kts 79°
2026-04-17 12:46 48.85845 8.88764 12893 ft 305 kts 81°
2026-04-17 12:46 48.86185 8.91946 12494 ft 305 kts 81°
2026-04-17 12:47 48.86534 8.95129 12093 ft 306 kts 80°
2026-04-17 12:47 48.86813 8.98330 11686 ft 306 kts 90°
2026-04-17 12:47 48.86433 9.01485 11285 ft 305 kts 112°
2026-04-17 12:47 48.85311 9.04184 10884 ft 304 kts 135°
2026-04-17 12:48 48.83609 9.06043 10480 ft 302 kts 156°
2026-04-17 12:48 48.81621 9.06809 10053 ft 301 kts 178°
2026-04-17 12:48 48.79512 9.06397 9491 ft 305 kts 196°
2026-04-17 12:48 48.77462 9.05508 8939 ft 308 kts 196°
2026-04-17 12:49 48.75388 9.04613 8383 ft 311 kts 196°
2026-04-17 12:49 48.73332 9.03732 7826 ft 313 kts 196°
2026-04-17 12:49 48.71192 9.02821 7135 ft 318 kts 196°
2026-04-17 12:49 48.69038 9.02157 6457 ft 324 kts 180°
2026-04-17 12:50 48.66834 9.02960 5810 ft 328 kts 149°
2026-04-17 12:50 48.65231 9.05276 5423 ft 319 kts 122°
2026-04-17 12:50 48.64539 9.08365 4617 ft 314 kts 92°
2026-04-17 12:50 48.64946 9.11577 3806 ft 306 kts 65°
2026-04-17 12:51 48.65927 9.14412 2995 ft 303 kts 61°
2026-04-17 12:51 48.66647 9.16413 2426 ft 299 kts 61°
2026-04-17 12:51 48.67623 9.19166 2114 ft 276 kts 62°